Погода в Агринионе

Греция     38°37′28″N   21°24′32″E
темп.,
°C
ветер,
м/с
пор.,
м/с
влажн.,
%
обл.,
%
осадки,
мм/ч
давл.,
гПа
погр.,
м
2 августа, пн
пн200:00+26в11290 0.0 101211
03:00+25св11320 0.0 101211
06:00+24ссв11320 0.0 101211
09:00+32св01210 0.0 1012180
12:00+40зсз34130 0.0 10121407
15:00+43з58110 0.0 10103912
18:00+41сз67120 0.0 10102918
21:00+30с22274 0.0 101216
3 августа, вт
вт300:00+27с11310 0.0 101312
03:00+26ссв11330 0.0 101311
06:00+26с22320 0.0 101311
09:00+33сз11230 0.0 1013185
12:00+41зсз36110 0.0 10122708
15:00+43сз5680 0.0 10114588
18:00+41сз57100 0.0 10113079
21:00+31ссв22200 0.0 101215
4 августа, ср
ср400:00+28св22230 0.0 101413
03:00+27св21220 0.0 101311
06:00+26ссв22230 0.0 101318
09:00+34зсз12180 0.0 1014215
12:00+40з36120 0.0 10132275
15:00+42зсз59100 0.0 10124004
18:00+40сз59120 0.0 10112382
21:00+30с222554 0.0 101225
5 августа, чт
чт500:00+27с11290 0.0 101311
03:00+26с11330 0.0 101312
06:00+25ссв11334 0.0 101211
09:00+33сз11230 0.0 1012196
12:00+40з34130 0.0 10111605
15:00+42з86100 0.0 10093544
18:00+40зсз6780 0.0 10092554
21:00+29в01200 0.0 100911
6 августа, пт
пт600:00+26вюв223799 0.0 101014
03:00+25вюв22428 0.0 100915
06:00+23в11420 0.0 100811
09:00+28ю24515 0.0 1008606
12:00+32ююз344358 0.0 10071229
15:00+35зюз89205 0.0 10062283
18:00+32з77160 0.0 10061561
21:00+23ссз34360 0.0 100762